Lid_Strength_Index
9 8 8 8 8 8 9 8 10 8 9 6 6 6 5 5 5 5 5 4 4 4 4 3 3 3 2 2 1 1 1 1 2 1 0 1 2 2 1 1 1 1 0 0
10 8 8 9 8 8 8 8 8 8 8 5 5 5 5 5 5 5 5 4 4 4 3 3 3 3 2 2 2 1 2 2 1 1 1 1 2 1 1 2 1 1 1 1
12 9 9 11 8 8 7 7 7 9 7 5 6 6 5 5 5 5 5 4 4 4 3 3 3 2 2 2 1 2 2 2 1 1 1 2 2 2 2 3 2 1 1 1
12 11 14 9 6 7 7 6 6 6 5 5 5 4 4 4 4 5 4 4 3 3 3 2 2 2 1 1 2 2 2 2 1 1 1 1 1 2 2 1 2 1 1 1
13 12 10 9 8 8 8 8 5 6 5 5 5 5 5 4 3 3 3 3 3 2 2 2 2 2 2 2 2 2 2 2 1 1 1 2 2 3 2 1 1 1 1 0
12 14 14 11 8 7 7 10 6 6 6 6 6 8 6 4 3 3 3 3 3 2 2 2 2 2 2 2 2 2 2 2 1 1 1 2 2 3 1 1 1 1 1 1
14 15 12 9 8 7 12 10 7 6 6 6 7 6 5 4 4 3 3 3 2 2 3 2 2 2 3 2 3 2 1 1 1 1 1 3 2 1 1 1 1 2 2 1
14 15 16 7 8 11 8 6 6 6 6 6 5 5 4 4 4 4 4 3 3 3 3 2 2 2 3 3 2 1 1 2 2 1 1 1 2 1 1 1 2 2 2 2
12 13 8 6 7 6 5 6 5 5 5 5 5 5 4 5 4 4 4 4 3 3 3 2 2 2 3 2 2 2 2 2 2 1 1 1 1 2 2 1 2 2 2 3
11 9 8 7 5 5 4 5 4 4 4 4 6 5 5 4 4 4 3 3 3 3 3 3 2 2 2 2 1 2 2 2 2 2 2 1 1 1 2 2 2 2 2 3
10 9 8 7 6 5 5 5 5 5 4 4 5 5 5 5 4 4 3 3 3 3 3 3 2 2 1 1 1 2 2 2 2 2 2 3 5 3 1 1 2 2 2 2
11 8 8 7 5 5 6 6 5 5 5 4 4 4 3 4 4 3 4 3 3 3 3 3 2 2 1 1 1 2 2 2 2 2 2 3 3 5 11 10 11 11 10 4
8 6 7 6 7 6 7 7 6 6 6 6 5 3 3 4 4 4 3 3 3 3 3 2 2 2 1 1 1 1 2 2 2 3 2 2 2 2 3 7 12 13 12 11
5 6 7 7 7 6 6 7 7 6 6 6 5 5 4 3 3 3 3 3 2 2 2 2 2 2 1 1 1 1 1 6 2 2 2 2 2 2 2 2 3 4 10 8
7 6 6 5 6 6 6 5 7 7 6 6 5 5 4 5 4 3 3 2 2 2 2 2 2 2 1 1 1 1 1 1 1 1 1 2 2 2 2 2 2 2 3 6
7 7 7 7 7 7 6 6 6 6 5 4 4 4 4 3 2 2 2 2 3 3 3 2 2 1 1 1 1 1 1 2 2 1 2 2 2 2 2 2 2 2 2 2
7 7 7 7 7 6 6 5 5 4 4 4 3 3 3 3 3 2 2 2 2 2 2 2 2 1 1 1 1 1 1 1 2 1 1 1 1 2 2 2 2 2 2 1
5 5 4 4 5 5 4 4 3 3 4 3 3 3 3 3 4 3 3 3 2 2 2 1 1 1 1 1 1 1 1 1 1 1 1 2 2 1 2 2 2 2 1 2
4 4 4 4 3 4 4 4 3 3 3 3 3 3 3 3 3 3 2 3 3 3 2 1 3 1 1 1 1 1 1 1 1 1 1 2 2 1 2 2 2 1 1 1
4 4 3 3 3 3 4 3 3 3 2 2 3 3 3 3 3 3 2 3 2 2 1 1 1 1 1 1 1 0 1 1 1 1 1 2 2 2 2 3 1 1 1 1
4 3 3 3 3 3 3 3 3 3 3 2 3 3 3 2 2 2 3 3 2 1 1 1 1 1 0 1 1 0 0 1 1 1 2 2 2 2 2 1 1 1 1 1
3 4 3 3 3 3 3 2 2 2 2 2 2 2 3 3 2 2 2 2 1 4 1 1 1 2 1 2 1 0 0 0 0 0 1 1 1 1 1 1 1 1 1 1
3 3 3 3 3 3 2 2 2 2 3 2 2 2 3 2 2 3 3 1 0 2 0 1 2 3 3 0 1 2 2 2 2 1 0 1 1 1 1 1 1 1 1 1
3 3 3 2 2 3 3 3 2 2 2 2 2 2 2 2 2 1 0 2 4 3 0 1 2 4 4 0 0 1 1 1 1 1 2 6 2 1 1 1 1 0 0 1
3 3 3 3 3 3 3 2 2 2 2 2 2 1 1 0 2 1 1 0 4 2 1 4 3 4 1 0 0 0 0 1 1 2 2 3 2 2 1 1 1 1 1 1
3 3 3 2 2 2 2 2 2 2 2 2 2 1 1 0 0 1 1 2 0 2 1 0 0 1 0 0 0 1 1 1 2 2 3 3 3 3 3 2 2 2 3 2
3 5 2 2 3 3 3 3 3 3 3 2 2 1 1 1 1 1 2 1 1 1 1 1 0 1 0 0 0 0 1 1 3 1 2 2 3 3 3 3 2 2 3 3